Preview of NWS' New Version of Forecast
This preview is not operational and should not be used for support decisions.

Regional Weather Roundup (RWR)

Issued by National Weather Service (NWS)

                            
000
ASUS42 KTBW 230716
RWRFL 
FLORIDA REGIONAL WEATHER ROUNDUP
NATIONAL WEATHER SERVICE TAMPA BAY RUSKIN FL
300 AM EDT THU MAY 23 2019

NOTE: "FAIR" INDICATES FEW OR NO CLOUDS BELOW 12,000 FEET WITH NO
SIGNIFICANT WEATHER AND/OR OBSTRUCTIONS TO VISIBILITY.

FLZ001>010-012>015-112-114-115-230800-
PANHANDLE FLORIDA
  
CITY           SKY/WX    TMP DP  RH WIND       PRES   REMARKS
PENSACOLA      FAIR      75  73  93 S3        30.09F                  
PENSACOLA NAS  FAIR      77  73  87 S6        30.08F                  
MILTON NAS     FAIR      67  67 100 CALM      30.10F                  
CRESTVIEW      MOCLDY    68  63  84 CALM      30.11F                  
DUKE FIELD     FAIR      69  65  86 CALM      30.09F                  
MARY ESTHER    PTCLDY    70  67  91 CALM      30.07F                  
PANAMA CITY    CLOUDY    74  71  91 NE3       30.09F                  
APALACHICOLA   CLOUDY    77  72  84 SE6       30.11S                  

STATION/POSITION SKY/WX   TEMP    WIND        PRES    WAVE   SWELL
                          AIR SEA DIR/SP/G            HT/PER HT/PER
                          (F)     (DEG/KT/KT) (MB)    (FT/S) (FT/S)
30.1N   87.6W                                   N/A     3/ 5
29.2N   88.2W                     130/ 12/ 16 1018.7F   4/ 6
PANAMA CITY BEAC           79 83   60/  3/  4 1019.5F
TOWER C          NOT AVBL

$$
FLZ011-016>038-118-127-128-134-139-239-230800-
NORTH FLORIDA
  
CITY           SKY/WX    TMP DP  RH WIND       PRES   REMARKS
MARIANNA       CLOUDY    78  73  84 E5        30.11R                  
TALLAHASSEE    FAIR      76  67  73 E8        30.14F                  
PERRY          FAIR      72  67  87 SE3       30.16S                  
LIVE OAK       PTCLDY    70  70 100 CALM      30.16F                  
CROSS CITY     FAIR      67  64  92 CALM      30.16S                  
LAKE CITY      FAIR      64  64 100 CALM      30.17S FOG              
GAINESVILLE    FAIR      71  67  87 E3        30.18F                  
WILLISTON      FAIR      68  66  93 CALM      30.15F                  
PALATKA        FAIR     N/A N/A N/A CALM      30.16F                  
MAYPORT NAS    FAIR      79  72  79 SE12      30.15F                  
JACKSONVILLE   MOCLDY    73  69  87 CALM      30.15F                  
JAX NAS        FAIR      78  70  76 E6        30.16F                  
JAX CECIL      FAIR      66  64  94 CALM      30.16F                  
FERNANDINA BEA CLOUDY    78  73  84 SE7       30.16F                  
ST AUGUSTINE   MOCLDY    78  71  79 SE12      30.17F                  
PALM COAST     FAIR      75  68  78 SE6       30.15F                  

STATION/POSITION SKY/WX   TEMP    WIND        PRES    WAVE   SWELL
                          AIR SEA DIR/SP/G            HT/PER HT/PER
                          (F)     (DEG/KT/KT) (MB)    (FT/S) (FT/S)
SHELL POINT      NOT AVBL
KEATON BEACH               71     100/  6/  7 1020.9F
CEDAR KEY                  77     130/ 12/ 14 1020.8F
FERNANDINA                 80 81  120/  3/  5 1022.1F
30.7N   81.3W                 80                N/A     2/ 8
MAYPORT                    78 80  130/  5/ 11 1021.5F
31.4N   80.9W              78 78  130/ 14/ 16 1021.6F   2/ 8   2/ 8
ST AUGUSTINE               79 81  140/ 14/ 16 1021.3F

$$
FLZ040-043>046-052-053-057-058-063-144-230800-
INTERIOR CENTRAL FLORIDA
  
CITY           SKY/WX    TMP DP  RH WIND       PRES   REMARKS
OCALA          FAIR      72  67  84 E3        30.16F                  
LEESBURG       FAIR      74  66  76 E7        30.15F                  
SANFORD        FAIR      72  67  84 CALM      30.14F                  
ORLANDO EXEC   FAIR      73  66  78 E8        30.14F                  
ORLANDO INTL   FAIR      71  65  81 E6        30.14F                  
KISSIMMEE      FAIR      73  66  78 NE6       30.15F                  
WINTER HAVEN   FAIR      73  66  78 E8        30.14F                  
LAKELAND       FAIR      72  64  78 E6        30.13F                  
BARTOW         FAIR      72  66  83 NE8       30.12F                  
SEBRING        FAIR      68  65  91 NE3       30.13F                  
OKEECHOBEE     FAIR      68  64  88 NE3       30.11F                  

$$
FLZ041-047-054-059-064-141-147-230800-
EAST CENTRAL FLORIDA
  
CITY           SKY/WX    TMP DP  RH WIND       PRES   REMARKS
DAYTONA BEACH  FAIR      77  70  79 E6        30.14F                  
DELAND         FAIR      68  64  88 CALM      30.15F                  
PATRICK AFB    FAIR      78  68  72 E15       30.13F                  
MELBOURNE      FAIR      79  65  62 E12       30.13F                  
VERO BEACH     FAIR      76  63  64 E9        30.13F                  
FT PIERCE      FAIR      76  64  66 E9        30.12F                  
STUART         FAIR      77  64  65 E8        30.13F                  

STATION/POSITION SKY/WX   TEMP    WIND        PRES    WAVE   SWELL
                          AIR SEA DIR/SP/G            HT/PER HT/PER
                          (F)     (DEG/KT/KT) (MB)    (FT/S) (FT/S)
28.5N   80.2W              79     100/ 14/ 17 1020.8F   4/ 5   2/ 8
28.9N   78.5W              78 79   70/ 17/ 19 1021.1F   3/ 4   2/ 7
TRIDENT PIER               77 82   90/  9/ 11 1021.8F
28.4N   80.5W                 80                N/A     3/ 5
27.5N   80.2W                 79                N/A     3/ 5

$$
FLZ050-056-061-142-242-148-248-149-249-151-251-155-255-
160-260-230800-
WEST CENTRAL FLORIDA
  
CITY           SKY/WX    TMP DP  RH WIND       PRES   REMARKS
CRYSTAL RIVER  FAIR      66  63  88 CALM      30.14F                  
INVERNESS      FAIR      68  68 100 CALM      30.15F                  
BROOKSVILLE    FAIR      68  63  84 NE5       30.15S                  
CLEARWATER AIR FAIR      73  63  68 E10       30.12F                  
ST PETE CLEARW FAIR      75  65  70 E10       30.12F                  
TAMPA INTL     FAIR      75  64  68 E5        30.12F                  
TAMPA EXEC     FAIR      64  63  94 CALM      30.13F                  
PLANT CITY     FAIR      72  66  83 E3        30.15F                  
PETER O KNIGHT CLOUDY    73  68  83 E7        30.13F                  
ST PETERSBURG    N/A    N/A N/A N/A MISG      30.11F                  
SARASOTA       FAIR      72  65  78 E6        30.09F                  
VENICE         FAIR      72  66  83 E8        30.11F                  

STATION/POSITION SKY/WX   TEMP    WIND        PRES    WAVE   SWELL
                          AIR SEA DIR/SP/G            HT/PER HT/PER
                          (F)     (DEG/KT/KT) (MB)    (FT/S) (FT/S)
27.3N   84.2W                 80                N/A     4/ 5
CLEARWATER BEACH           77 86   80/  8/ 16 1019.9F
MIDDLE TAMPA BAY           74     110/ 12/ 14 1020.0F
VENICE                     72 83   70/  7/  9 1019.1F

$$
FLZ066-069-070-075>078-162-262-165-265-230800-
SOUTHWEST FLORIDA AND KEYS
  
CITY           SKY/WX    TMP DP  RH WIND       PRES   REMARKS
PUNTA GORDA    FAIR      70  66  87 E6        30.12F                  
FT MYERS       FAIR      73  69  87 E7        30.09F                  
SOUTHWEST INTL FAIR      74  68  81 E6        30.09F                  
NAPLES         FAIR      74  69  85 NE9       30.08F                  
MARCO ISLAND   FAIR      73  69  87 NE8       30.09F                  
IMMOKALEE      FAIR      72  68  88 NE5       30.07F                  
MARATHON       FAIR      83  69  62 E12G20    30.04F                  
KEY WEST NAS   FAIR      83  70  64 E16       30.04F                  
KEY WEST INTL  MOCLDY    81  71  71 E15G28    30.05F                  

STATION/POSITION SKY/WX   TEMP    WIND        PRES    WAVE   SWELL
                          AIR SEA DIR/SP/G            HT/PER HT/PER
                          (F)     (DEG/KT/KT) (MB)    (FT/S) (FT/S)
NAPLES                     76 84              1018.6F
DRY TORTUGAS               81     100/ 19/ 21 1017.5F
SAND KEY                   81                 1017.2F
SOMBRERO KEY               81                 1016.6F

$$
FLZ067-068-071>074-168-172>174-230800-
SOUTHEAST FLORIDA 
  
CITY           SKY/WX    TMP DP  RH WIND       PRES   REMARKS
W PALM BEACH   FAIR      80  68  66 E15       30.10F                  
FT LAUDER-EXEC FAIR      79  69  71 E14       30.08F                  
FT LAUDERDALE  FAIR      79  69  71 E15       30.07F                  
POMPANO BEACH  FAIR      80  68  66 E15       30.08F                  
PEMBROKE PINES FAIR      79  68  69 E15       30.09F                  
OPA LOCKA      FAIR      79  69  71 E10       30.08F                  
MIAMI          MOCLDY    80  69  69 E16       30.08F                  
WEST KENDALL   FAIR      79  68  69 E13       30.07F                  
HOMESTEAD      NOT AVBL                                               

STATION/POSITION SKY/WX   TEMP    WIND        PRES    WAVE   SWELL
                          AIR SEA DIR/SP/G            HT/PER HT/PER
                          (F)     (DEG/KT/KT) (MB)    (FT/S) (FT/S)
PORT EVERGLADES            80      80/ 12/ 16 1018.6
VIRGINIA KEY               80 85   70/ 14/ 20 1017.9F
LAKE WORTH                 79 82              1020.2F
SETTLEMENT POINT           78      80/ 16/ 18 1019.4F

$$